Powrót do katalogu

STARLINK-36721

AktywnyŁącznośćVLEO
NORAD 67916·PAYLOAD·🇺🇸 United States

Wystrzelony Feb 22, 2026 z Vandenberg Space Force Base

Loading…

Następne Przeloty (najbliższe 24 godziny)

TLE

ŚwieżeSource: CelesTrak SupGP

Epoka: Sep 14, 2026, 21:30 UTC

1 67916C 26036N   26257.89631944  .00036089  00000+0  13077-2 0  2574
2 67916  43.0013 256.4591 0001305 260.6656  31.6834 15.27548138    14

Śledź STARLINK-36721 w czasie rzeczywistym z AllMySat

Download on the App Store